When you browse on this site, cookies collect data to enhance your experience and personalize the content and advertising you see.
Visit our Privacy Policy to learn more. By continuing to use the site, you agree to this use of cookies and data.
  • In Hungary
  • List of Countries
  • For 7 days
  • Water Temperature
  • Satellite Maps
  • Weather Map
  • News
  • Weather Widgets
  • user-avatar
    Login

    Hourly Weather San Vicente

    Today, 21 March, Thursday

    Time Temperature Precipitation Wind Pressure Humidity
    00:00 +18°C° 0 mm 1 mps 743 mmHg 31%
    01:00 +16°C° 0 mm 1 mps 743 mmHg 34%
    02:00 +16°C° 0 mm 1 mps 743 mmHg 32%
    03:00 +16°C° 0 mm 1 mps 743 mmHg 30%
    04:00 +15°C° 0 mm 1 mps 743 mmHg 28%
    05:00 +16°C° 0 mm 1 mps 743 mmHg 25%
    06:00 +19°C° 0 mm 1 mps 743 mmHg 22%
    07:00 +20°C° 0 mm 1 mps 743 mmHg 19%
    08:00 +23°C° 0 mm 2 mps 743 mmHg 16%
    09:00 +26°C° 0 mm 2 mps 743 mmHg 12%
    10:00 +29°C° 0 mm 3 mps 743 mmHg 9%
    11:00 +30°C° 0 mm 3 mps 743 mmHg 8%
    12:00 +33°C° 0 mm 3 mps 743 mmHg 7%
    13:00 +34°C° 0 mm 3 mps 743 mmHg 6%
    14:00 +34°C° 0 mm 4 mps 743 mmHg 7%
    15:00 +34°C° 0 mm 4 mps 743 mmHg 7%
    16:00 +33°C° 0 mm 4 mps 743 mmHg 8%
    17:00 +29°C° 0 mm 3 mps 743 mmHg 14%
    18:00 +25°C° 0 mm 2 mps 743 mmHg 20%
    19:00 +22°C° 0 mm 1 mps 743 mmHg 27%
    20:00 +21°C° 0 mm 1 mps 743 mmHg 29%
    21:00 +20°C° 0 mm 1 mps 743 mmHg 32%
    22:00 +19°C° 0 mm 1 mps 744 mmHg 35%
    23:00 +19°C° 0 mm 1 mps 744 mmHg 34%

    Tomorrow, 22 March, Friday

    Time Temperature Precipitation Wind Pressure Humidity
    00:00 +19°C° 0 mm 1 mps 743 mmHg 34%
    01:00 +18°C° 0 mm 1 mps 743 mmHg 34%
    02:00 +18°C° 0 mm 1 mps 743 mmHg 33%
    03:00 +18°C° 0 mm 1 mps 743 mmHg 33%
    04:00 +18°C° 0 mm 1 mps 742 mmHg 32%
    05:00 +19°C° 0 mm 1 mps 743 mmHg 30%
    06:00 +20°C° 0 mm 1 mps 743 mmHg 28%
    07:00 +21°C° 0 mm 1 mps 743 mmHg 26%
    08:00 +24°C° 0 mm 2 mps 743 mmHg 21%
    09:00 +28°C° 0 mm 2 mps 743 mmHg 16%
    10:00 +31°C° 0 mm 2 mps 743 mmHg 11%
    11:00 +33°C° 0 mm 3 mps 742 mmHg 10%
    12:00 +35°C° 0 mm 3 mps 742 mmHg 8%
    13:00 +36°C° 0 mm 3 mps 742 mmHg 7%
    14:00 +36°C° 0 mm 3 mps 742 mmHg 7%
    15:00 +36°C° 0 mm 3 mps 742 mmHg 8%
    16:00 +36°C° 0 mm 3 mps 742 mmHg 8%
    17:00 +31°C° 0 mm 3 mps 742 mmHg 15%
    18:00 +27°C° 0 mm 2 mps 743 mmHg 23%
    19:00 +23°C° 0 mm 1 mps 743 mmHg 30%
    20:00 +23°C° 0 mm 1 mps 743 mmHg 33%
    21:00 +22°C° 0 mm 1 mps 743 mmHg 35%
    22:00 +19°C° 0 mm 0 mps 744 mmHg 38%
    23:00 +18°C° 0 mm 0 mps 743 mmHg 37%

    Day after tomorrow, 23 March, Saturday

    Time Temperature Precipitation Wind Pressure Humidity
    00:00 +20°C° 0 mm 1 mps 743 mmHg 37%
    01:00 +20°C° 0 mm 1 mps 743 mmHg 36%
    02:00 +19°C° 0 mm 1 mps 743 mmHg 36%
    03:00 +19°C° 0 mm 1 mps 743 mmHg 35%
    04:00 +19°C° 0 mm 1 mps 743 mmHg 34%
    05:00 +20°C° 0 mm 1 mps 743 mmHg 32%
    06:00 +21°C° 0 mm 1 mps 743 mmHg 30%
    07:00 +21°C° 0 mm 1 mps 744 mmHg 28%
    08:00 +25°C° 0 mm 2 mps 744 mmHg 23%
    09:00 +28°C° 0 mm 2 mps 744 mmHg 19%
    10:00 +31°C° 0 mm 3 mps 744 mmHg 14%
    11:00 +33°C° 0 mm 3 mps 744 mmHg 13%
    12:00 +34°C° 0 mm 4 mps 743 mmHg 13%
    13:00 +36°C° 0 mm 4 mps 743 mmHg 12%
    14:00 +35°C° 0 mm 4 mps 743 mmHg 13%
    15:00 +35°C° 0 mm 4 mps 743 mmHg 14%
    16:00 +35°C° 0 mm 4 mps 743 mmHg 15%
    17:00 +31°C° 0 mm 3 mps 743 mmHg 20%
    18:00 +28°C° 0 mm 2 mps 744 mmHg 25%
    19:00 +25°C° 0 mm 2 mps 744 mmHg 30%
    20:00 +24°C° 0 mm 1 mps 744 mmHg 31%
    21:00 +23°C° 0 mm 1 mps 744 mmHg 31%
    22:00 +22°C° 0 mm 1 mps 745 mmHg 31%
    23:00 +21°C° 0 mm 1 mps 744 mmHg 31%

    24 March, Sunday

    Time Temperature Precipitation Wind Pressure Humidity
    00:00 +21°C° 0 mm 1 mps 744 mmHg 31%
    01:00 +20°C° 0 mm 1 mps 744 mmHg 32%
    02:00 +20°C° 0 mm 1 mps 744 mmHg 32%
    03:00 +19°C° 0 mm 1 mps 743 mmHg 33%
    04:00 +19°C° 0 mm 1 mps 743 mmHg 33%
    05:00 +20°C° 0 mm 1 mps 743 mmHg 31%
    06:00 +21°C° 0 mm 1 mps 743 mmHg 29%
    07:00 +22°C° 0 mm 1 mps 744 mmHg 28%
    08:00 +25°C° 0 mm 2 mps 743 mmHg 23%
    09:00 +28°C° 0 mm 2 mps 743 mmHg 18%
    10:00 +31°C° 0 mm 2 mps 743 mmHg 13%
    11:00 +34°C° 0 mm 3 mps 743 mmHg 12%
    12:00 +35°C° 0 mm 3 mps 743 mmHg 10%
    13:00 +36°C° 0 mm 3 mps 742 mmHg 9%
    14:00 +36°C° 0 mm 3 mps 742 mmHg 9%
    15:00 +36°C° 0 mm 3 mps 742 mmHg 9%
    16:00 +36°C° 0 mm 3 mps 742 mmHg 8%
    17:00 +31°C° 0 mm 2 mps 742 mmHg 13%
    18:00 +27°C° 0 mm 2 mps 742 mmHg 18%
    19:00 +23°C° 0 mm 1 mps 743 mmHg 23%
    20:00 +22°C° 0 mm 1 mps 743 mmHg 26%
    21:00 +21°C° 0 mm 1 mps 743 mmHg 28%
    22:00 +18°C° 0 mm 0 mps 743 mmHg 31%
    23:00 +18°C° 0 mm 0 mps 742 mmHg 30%

    25 March, Monday

    Time Temperature Precipitation Wind Pressure Humidity
    00:00 +18°C° 0 mm 0 mps 742 mmHg 30%
    01:00 +18°C° 0 mm 0 mps 742 mmHg 29%
    02:00 +17°C° 0 mm 0 mps 742 mmHg 27%
    03:00 +19°C° 0 mm 1 mps 742 mmHg 26%
    04:00 +19°C° 0 mm 1 mps 742 mmHg 24%
    05:00 +20°C° 0 mm 1 mps 742 mmHg 22%
    06:00 +21°C° 0 mm 1 mps 742 mmHg 20%
    07:00 +20°C° 0 mm 0 mps 742 mmHg 18%
    08:00 +25°C° 0 mm 1 mps 742 mmHg 15%
    09:00 +28°C° 0 mm 1 mps 742 mmHg 11%
    10:00 +32°C° 0 mm 2 mps 742 mmHg 8%
    11:00 +34°C° 0 mm 2 mps 742 mmHg 8%
    12:00 +35°C° 0 mm 2 mps 742 mmHg 7%
    13:00 +36°C° 0 mm 3 mps 742 mmHg 7%
    14:00 +36°C° 0 mm 3 mps 741 mmHg 8%
    15:00 +35°C° 0 mm 3 mps 741 mmHg 9%
    16:00 +35°C° 0 mm 3 mps 741 mmHg 10%
    17:00 +30°C° 0 mm 3 mps 741 mmHg 18%
    18:00 +26°C° 0 mm 2 mps 742 mmHg 26%
    19:00 +22°C° 0 mm 1 mps 742 mmHg 34%
    20:00 +22°C° 0 mm 1 mps 742 mmHg 36%
    21:00 +21°C° 0 mm 1 mps 742 mmHg 39%
    22:00 +18°C° 0 mm 0 mps 742 mmHg 41%
    23:00 +18°C° 0 mm 0 mps 742 mmHg 42%

    26 March, Tuesday

    Time Temperature Precipitation Wind Pressure Humidity
    00:00 +17°C° 0 mm 0 mps 742 mmHg 42%
    01:00 +17°C° 0 mm 0 mps 742 mmHg 43%
    02:00 +16°C° 0 mm 0 mps 741 mmHg 42%
    03:00 +16°C° 0 mm 0 mps 741 mmHg 42%
    04:00 +16°C° 0 mm 0 mps 741 mmHg 41%
    05:00 +17°C° 0 mm 0 mps 741 mmHg 39%
    06:00 +20°C° 0 mm 1 mps 742 mmHg 36%
    07:00 +21°C° 0 mm 1 mps 742 mmHg 34%
    08:00 +24°C° 0 mm 1 mps 742 mmHg 29%
    09:00 +27°C° 0 mm 2 mps 742 mmHg 23%
    10:00 +30°C° 0 mm 2 mps 742 mmHg 18%
    11:00 +31°C° 0 mm 3 mps 742 mmHg 16%
    12:00 +33°C° 0 mm 3 mps 742 mmHg 15%
    13:00 +35°C° 0 mm 3 mps 741 mmHg 14%
    14:00 +34°C° 0 mm 3 mps 741 mmHg 16%
    15:00 +33°C° 0 mm 4 mps 741 mmHg 18%
    16:00 +32°C° 0 mm 4 mps 741 mmHg 19%
    17:00 +28°C° 0 mm 3 mps 742 mmHg 28%
    18:00 +25°C° 0 mm 2 mps 742 mmHg 37%
    19:00 +21°C° 0 mm 1 mps 742 mmHg 45%
    20:00 +21°C° 0 mm 1 mps 742 mmHg 49%
    21:00 +20°C° 0 mm 1 mps 742 mmHg 52%
    22:00 +17°C° 0 mm 0 mps 742 mmHg 55%
    23:00 +17°C° 0 mm 0 mps 742 mmHg 55%
    Show more